• In Belarus
  • List of Countries
  • For 7 days
  • Water Temperature
  • Satellite Maps
  • Weather Map
  • Weather Widgets
  • user-avatar
    Login

    Hourly Weather Chubivka

    Today, 25 February, Sunday

    Time Temperature Precipitation Wind Pressure Humidity
    00:00 -9°C° 0.1 mm 4 mps 740 mmHg 88%
    01:00 -9°C° 0.1 mm 4 mps 740 mmHg 88%
    02:00 -10°C° 0.1 mm 5 mps 740 mmHg 88%
    03:00 -11°C° 0.1 mm 5 mps 740 mmHg 88%
    04:00 -11°C° 0.1 mm 5 mps 740 mmHg 87%
    05:00 -12°C° 0.1 mm 5 mps 741 mmHg 87%
    06:00 -12°C° 0 mm 6 mps 741 mmHg 86%
    07:00 -14°C° 0 mm 6 mps 741 mmHg 85%
    08:00 -15°C° 0 mm 6 mps 742 mmHg 85%
    09:00 -15°C° 0 mm 6 mps 742 mmHg 83%
    10:00 -14°C° 0 mm 5 mps 742 mmHg 82%
    11:00 -14°C° 0 mm 5 mps 743 mmHg 80%
    12:00 -13°C° 0 mm 5 mps 743 mmHg 78%
    13:00 -13°C° 0 mm 5 mps 743 mmHg 77%
    14:00 -13°C° 0 mm 5 mps 743 mmHg 75%
    15:00 -13°C° 0 mm 5 mps 743 mmHg 76%
    16:00 -14°C° 0 mm 5 mps 743 mmHg 78%
    17:00 -14°C° 0 mm 5 mps 744 mmHg 79%
    18:00 -15°C° 0 mm 5 mps 744 mmHg 80%
    19:00 -17°C° 0 mm 5 mps 744 mmHg 82%
    20:00 -18°C° 0 mm 5 mps 745 mmHg 83%
    21:00 -18°C° 0 mm 5 mps 745 mmHg 84%
    22:00 -19°C° 0 mm 5 mps 745 mmHg 84%
    23:00 -18°C° 0 mm 4 mps 745 mmHg 85%

    Tomorrow, 26 February, Monday

    Time Temperature Precipitation Wind Pressure Humidity
    00:00 -19°C° 0 mm 4 mps 745 mmHg 85%
    01:00 -19°C° 0 mm 4 mps 745 mmHg 86%
    02:00 -20°C° 0 mm 4 mps 745 mmHg 86%
    03:00 -20°C° 0 mm 4 mps 745 mmHg 87%
    04:00 -20°C° 0 mm 4 mps 745 mmHg 87%
    05:00 -20°C° 0 mm 4 mps 745 mmHg 88%
    06:00 -20°C° 0 mm 4 mps 745 mmHg 87%
    07:00 -20°C° 0 mm 4 mps 745 mmHg 87%
    08:00 -21°C° 0 mm 5 mps 745 mmHg 87%
    09:00 -20°C° 0 mm 5 mps 746 mmHg 84%
    10:00 -18°C° 0 mm 5 mps 746 mmHg 81%
    11:00 -17°C° 0 mm 5 mps 746 mmHg 78%
    12:00 -15°C° 0 mm 5 mps 745 mmHg 76%
    13:00 -15°C° 0 mm 5 mps 745 mmHg 75%
    14:00 -14°C° 0 mm 5 mps 745 mmHg 74%
    15:00 -14°C° 0 mm 5 mps 745 mmHg 75%
    16:00 -14°C° 0 mm 5 mps 745 mmHg 76%
    17:00 -15°C° 0 mm 5 mps 744 mmHg 78%
    18:00 -16°C° 0 mm 6 mps 744 mmHg 79%
    19:00 -17°C° 0 mm 6 mps 744 mmHg 81%
    20:00 -17°C° 0 mm 6 mps 744 mmHg 82%
    21:00 -17°C° 0 mm 6 mps 744 mmHg 82%
    22:00 -18°C° 0 mm 6 mps 743 mmHg 83%
    23:00 -18°C° 0 mm 6 mps 743 mmHg 83%

    Day after tomorrow, 27 February, Tuesday

    Time Temperature Precipitation Wind Pressure Humidity
    00:00 -18°C° 0 mm 6 mps 743 mmHg 83%
    01:00 -18°C° 0 mm 6 mps 742 mmHg 83%
    02:00 -19°C° 0 mm 7 mps 742 mmHg 83%
    03:00 -18°C° 0.1 mm 6 mps 742 mmHg 84%
    04:00 -18°C° 0.1 mm 6 mps 742 mmHg 85%
    05:00 -18°C° 0.1 mm 6 mps 741 mmHg 86%
    06:00 -19°C° 0.4 mm 7 mps 741 mmHg 88%
    07:00 -19°C° 0.4 mm 7 mps 741 mmHg 89%
    08:00 -19°C° 0.4 mm 7 mps 741 mmHg 91%
    09:00 -18°C° 0.5 mm 7 mps 741 mmHg 90%
    10:00 -18°C° 0.5 mm 8 mps 741 mmHg 90%
    11:00 -17°C° 0.5 mm 8 mps 740 mmHg 89%
    12:00 -17°C° 0.3 mm 8 mps 740 mmHg 88%
    13:00 -16°C° 0.3 mm 8 mps 740 mmHg 88%
    14:00 -15°C° 0.3 mm 7 mps 739 mmHg 87%
    15:00 -15°C° 0.3 mm 7 mps 739 mmHg 88%
    16:00 -15°C° 0.3 mm 7 mps 740 mmHg 88%
    17:00 -15°C° 0.3 mm 6 mps 740 mmHg 89%
    18:00 -15°C° 0.3 mm 6 mps 740 mmHg 90%
    19:00 -16°C° 0.3 mm 6 mps 740 mmHg 90%
    20:00 -15°C° 0.3 mm 5 mps 740 mmHg 91%
    21:00 -15°C° 0.2 mm 5 mps 740 mmHg 91%
    22:00 -15°C° 0.2 mm 5 mps 740 mmHg 92%
    23:00 -15°C° 0.2 mm 4 mps 740 mmHg 92%

    28 February, Wednesday

    Time Temperature Precipitation Wind Pressure Humidity
    00:00 -15°C° 0.1 mm 4 mps 740 mmHg 92%
    01:00 -15°C° 0.1 mm 4 mps 740 mmHg 92%
    02:00 -15°C° 0.1 mm 4 mps 740 mmHg 93%
    03:00 -16°C° 0 mm 4 mps 740 mmHg 93%
    04:00 -16°C° 0 mm 4 mps 740 mmHg 94%
    05:00 -16°C° 0 mm 3 mps 740 mmHg 94%
    06:00 -16°C° 0 mm 3 mps 740 mmHg 94%
    07:00 -16°C° 0 mm 3 mps 741 mmHg 93%
    08:00 -16°C° 0 mm 3 mps 741 mmHg 93%
    09:00 -15°C° 0 mm 3 mps 741 mmHg 90%
    10:00 -15°C° 0 mm 4 mps 742 mmHg 88%
    11:00 -14°C° 0 mm 4 mps 742 mmHg 85%
    12:00 -14°C° 0 mm 4 mps 742 mmHg 83%
    13:00 -12°C° 0 mm 3 mps 742 mmHg 81%
    14:00 -12°C° 0 mm 3 mps 742 mmHg 79%
    15:00 -12°C° 0 mm 3 mps 742 mmHg 81%
    16:00 -12°C° 0 mm 3 mps 742 mmHg 82%
    17:00 -13°C° 0 mm 3 mps 742 mmHg 84%
    18:00 -14°C° 0 mm 3 mps 742 mmHg 85%
    19:00 -15°C° 0 mm 3 mps 742 mmHg 87%
    20:00 -17°C° 0 mm 3 mps 743 mmHg 89%
    21:00 -17°C° 0 mm 3 mps 743 mmHg 89%
    22:00 -17°C° 0 mm 3 mps 743 mmHg 89%
    23:00 -18°C° 0 mm 3 mps 743 mmHg 90%

    1 March, Thursday

    Time Temperature Precipitation Wind Pressure Humidity
    00:00 -18°C° 0 mm 3 mps 743 mmHg 89%
    01:00 -18°C° 0 mm 3 mps 743 mmHg 89%
    02:00 -19°C° 0 mm 4 mps 743 mmHg 89%
    03:00 -19°C° 0 mm 4 mps 743 mmHg 89%
    04:00 -19°C° 0 mm 4 mps 743 mmHg 89%
    05:00 -19°C° 0 mm 4 mps 743 mmHg 90%
    06:00 -19°C° 0 mm 4 mps 743 mmHg 90%
    07:00 -19°C° 0 mm 4 mps 743 mmHg 90%
    08:00 -19°C° 0 mm 4 mps 743 mmHg 90%
    09:00 -19°C° 0 mm 5 mps 743 mmHg 88%
    10:00 -18°C° 0 mm 6 mps 743 mmHg 86%
    11:00 -17°C° 0 mm 6 mps 743 mmHg 84%
    12:00 -16°C° 0 mm 6 mps 742 mmHg 82%
    13:00 -15°C° 0 mm 6 mps 742 mmHg 80%
    14:00 -15°C° 0 mm 7 mps 742 mmHg 79%
    15:00 -15°C° 0 mm 6 mps 742 mmHg 80%
    16:00 -16°C° 0 mm 6 mps 742 mmHg 81%
    17:00 -15°C° 0 mm 5 mps 742 mmHg 82%
    18:00 -17°C° 0 mm 5 mps 741 mmHg 84%
    19:00 -18°C° 0 mm 5 mps 741 mmHg 86%
    20:00 -19°C° 0 mm 5 mps 741 mmHg 88%
    21:00 -19°C° 0 mm 5 mps 741 mmHg 88%
    22:00 -19°C° 0 mm 5 mps 741 mmHg 88%
    23:00 -20°C° 0 mm 5 mps 741 mmHg 88%

    2 March, Friday

    Time Temperature Precipitation Wind Pressure Humidity
    00:00 -20°C° 0 mm 5 mps 741 mmHg 89%
    01:00 -20°C° 0 mm 5 mps 741 mmHg 89%
    02:00 -20°C° 0 mm 5 mps 741 mmHg 90%
    03:00 -20°C° 0 mm 5 mps 741 mmHg 90%
    04:00 -20°C° 0 mm 4 mps 741 mmHg 90%
    05:00 -20°C° 0 mm 4 mps 741 mmHg 91%
    06:00 -19°C° 0 mm 4 mps 741 mmHg 90%
    07:00 -19°C° 0 mm 4 mps 741 mmHg 89%
    08:00 -19°C° 0 mm 4 mps 741 mmHg 88%
    09:00 -18°C° 0 mm 4 mps 741 mmHg 86%
    10:00 -16°C° 0 mm 4 mps 741 mmHg 83%
    11:00 -15°C° 0 mm 4 mps 741 mmHg 81%
    12:00 -14°C° 0 mm 4 mps 741 mmHg 79%
    13:00 -12°C° 0 mm 4 mps 741 mmHg 77%
    14:00 -10°C° 0 mm 3 mps 741 mmHg 76%
    15:00 -12°C° 0 mm 3 mps 740 mmHg 78%
    16:00 -10°C° 0 mm 2 mps 740 mmHg 80%
    17:00 -9°C° 0 mm 1 mps 740 mmHg 83%
    18:00 -10°C° 0 mm 1 mps 740 mmHg 83%
    19:00 -11°C° 0 mm 1 mps 740 mmHg 84%
    20:00 -12°C° 0 mm 1 mps 740 mmHg 85%
    21:00 -13°C° 0 mm 1 mps 740 mmHg 85%
    22:00 -13°C° 0 mm 1 mps 740 mmHg 86%
    23:00 -13°C° 0 mm 1 mps 740 mmHg 86%
    Show more